Regional Weather Roundup
Issued by NWS Portland, ME

Home | Current Version | Previous Version | Text Only | Print | Product List | Glossary On
Versions: 1 2 3 4 5 6 7 8 9 10 11 12 13 14 15 16 17 18 19 20 21 22 23 24 25 26 27 28 29 30 31 32 33 34 35 36 37 38 39 40 41 42 43 44 45 46 47 48 49 50
000
ASUS41 KGYX 201510
RWRGYX
WEATHER ROUNDUP FOR MAINE AND NEW HAMPSHIRE
NATIONAL WEATHER SERVICE GRAY ME
1100 AM EDT SAT SEP 20 2014

MEZ002-005-006-010-012-015-018-020-021-024-026-027-029-201600-
MAINE

CITY           SKY/WX    TMP DP  RH WIND       PRES   REMARKS
PORTLAND       CLOUDY    56  44  64 SW9       30.28F
SANFORD        CLOUDY    52  43  71 SW6       30.29F
BAR HARBOR     PTSUNNY   59  48  67 S22G29    30.27F
WISCASSET      CLOUDY    57  45  64 SW10      30.29F
ROCKLAND       MOSUNNY   57  45  62 S15G26    30.27F
FRYEBURG       CLOUDY    49  41  74 W6        30.27F
LEWISTONAUBURN CLOUDY    52  41  66 SW9       30.27F
AUGUSTA        CLOUDY    53  43  68 S10       30.26F
WATERVILLE     CLOUDY    54  39  58 SW8       30.20F
BANGOR         PTSUNNY   59  44  57 SW15G23   30.25F
GREENVILLE       N/A     50  40  68 S9G17     30.14F
MILLINOCKET    PTSUNNY   51  40  65 SW9       30.19F
HOULTON        CLOUDY    50  37  61 S12G25    30.16F
PRESQUE ISLE   CLOUDY    50  36  57 S15G23    30.09F
FRENCHVILLE    CLOUDY    44  33  65 S12       30.05F
CARIBOU        PTSUNNY   50  37  61 S14G20    30.08F
$$

NHZ002-005-008-009-011-012-014-201600-
NEW HAMPSHIRE

CITY           SKY/WX    TMP DP  RH WIND       PRES   REMARKS
PORTSMOUTH     CLOUDY    57  48  70 W2        30.27F
ROCHESTER      CLOUDY    52  43  71 VRB3      30.28F
NASHUA         PTSUNNY   58  47  66 CALM      30.29F
MANCHESTER     PTSUNNY   53  42  66 S5        30.27F
CONCORD        MOSUNNY   53  44  71 SE8       30.27F
LACONIA        CLOUDY    52  43  71 SW10G16   30.26S
PLYMOUTH       CLOUDY    44  43  97 CALM      30.28F
BERLIN         CLOUDY    41  37  86 CALM      30.20F
WHITEFIELD     CLOUDY    49  42  77 CALM      30.20F
JAFFREY        CLOUDY    56  48  74 S8        30.28F
LEBANON        CLOUDY    54  45  71 S13       30.24F
MT WASHINGTON  FOG       37  37 100 W54G61      N/A  VSB 0
$$

VTZ005-007-008-201600-
VERMONT

CITY           SKY/WX    TMP DP  RH WIND       PRES   REMARKS
ST JOHNSBURY     N/A     51  44  77 MISG      30.18F
MONTPELIER     CLOUDY    50  45  83 S7        30.22F
BURLINGTON     MOSUNNY   60  48  64 S28G39    30.11F
$$

MAZ007-012-024-CTZ003-RIZ002-NYZ038-NYZ072-201600-
SOUTHERN NEW ENGLAND AND NY

CITY           SKY/WX    TMP DP  RH WIND       PRES   REMARKS
BOSTON         MOSUNNY   65  48  54 S12       30.30F
WORCESTER      MOSUNNY   59  49  69 S14       30.29F
NANTUCKET      SUNNY     63  51  65 SE14      30.33F
PROVIDENCE     MOSUNNY   66  51  58 S14       30.31F
HARTFORD       PTSUNNY   65  51  60 S10       30.27F
ALBANY         MOSUNNY   65  53  65 S15G24    30.20F
NEW YORK CITY  PTSUNNY   71  55  56 S12G21    30.26F
$$

ANZ081-ANZ082-ANZ150-NHZ014-MEZ023>029-201600-
COASTAL MARINE OBSERVATIONS

STATION/POSITION TIME  TEMP    WIND        PRES    WAVE
                       AIR SEA DIR/SP/G            HT/PER
                 (UTC) (F)     (DEG/KT/KT) (MB)    (FT/S)
MATINICUS ROCK   1500          220/ 20/ 22 1025.7F
PORTLAND WX BUOY 1450   57 57  190/ 17/ 21 1024.9F   4/ 5
WELLS            1400   57 57  210/ 16/ 19 1025.4F
ISLE OF SHOALS   1500   58     180/ 19/ 21 1024.9F
JEFFREYS LEDGE   1421      60                N/A     3/ 4
CASHES LEDGE BUO 1450   58 61              1026.2F   4/ 4
$$

.............KEY..............
   WCI - WIND CHILL
   TC  - TEMPERATURE IN CELSIUS
   VSB - VISIBILITY IN MILES
   HX  - HEAT INDEX
   FAIR- INDICATES FEW OR NO CLOUDS BELOW 12,000 FT, WITH NO
         SIGNIFICANT WEATHER AND/OR OBSTRUCTIONS TO VISIBILITY.





USA.gov is the U.S. government's official web portal to all federal, state and local government web resources and services.